Location: George Washington National Forest Helicopter Landing Site
(38.6463°N, 79.0851°W)
Time: 02:47:19
(UTC-04:00)

Tiros 1 - Pass Details

Date: 31 August 2019
Orbit: 631 x 664 km, 48.4° (Epoch: 14 September)

Event Time Altitude Azimuth Distance (km) Brightness Sun altitude
Exits shadow 05:51:28 11° 221° (SW) 1,956 9.1 -10.8°
Drops below altitude 10° 05:52:13 10° 212° (SSW) 2,026 9.2 -10.6°
Sets 05:56:10 0° 179° (S) 2,939 10.3 -9.9°
